TimeEST,TemperatureF,Dew PointF,Humidity,Sea Level PressureIn,VisibilityMPH,Wind Direction,Wind SpeedMPH,Gust SpeedMPH,PrecipitationIn,Events,Conditions,WindDirDegrees,DateUTC
12:52 AM,36.0,23.0,59,30.01,10.0,West,6.9,-,N/A,,Clear,260,2014-01-13 05:52:00
1:52 AM,35.1,21.9,59,30.02,10.0,Calm,Calm,-,N/A,,Clear,0,2014-01-13 06:52:00
2:52 AM,35.1,21.9,59,30.04,10.0,West,5.8,-,N/A,,Clear,270,2014-01-13 07:52:00
3:52 AM,34.0,21.9,61,30.06,10.0,West,5.8,-,N/A,,Clear,270,2014-01-13 08:52:00
4:52 AM,32.0,21.9,66,30.08,10.0,Calm,Calm,-,N/A,,Clear,0,2014-01-13 09:52:00
5:52 AM,30.0,23.0,75,30.09,10.0,South,3.5,-,N/A,,Clear,170,2014-01-13 10:52:00
6:52 AM,28.0,21.9,78,30.11,10.0,Calm,Calm,-,N/A,,Clear,0,2014-01-13 11:52:00
7:52 AM,28.0,23.0,81,30.11,10.0,Calm,Calm,-,N/A,,Clear,0,2014-01-13 12:52:00
8:52 AM,36.0,24.1,62,30.11,10.0,SSW,6.9,-,N/A,,Clear,200,2014-01-13 13:52:00
9:52 AM,39.9,25.0,55,30.11,10.0,SSE,5.8,-,N/A,,Clear,160,2014-01-13 14:52:00
10:52 AM,44.1,24.1,45,30.09,10.0,SSE,10.4,-,N/A,,Clear,160,2014-01-13 15:52:00
11:52 AM,46.0,25.0,44,30.05,10.0,SSE,8.1,-,N/A,,Clear,150,2014-01-13 16:52:00
12:52 PM,51.1,25.0,36,30.01,10.0,South,9.2,-,N/A,,Clear,190,2014-01-13 17:52:00
1:52 PM,52.0,26.1,37,30.01,10.0,South,12.7,-,N/A,,Clear,190,2014-01-13 18:52:00
2:52 PM,52.0,27.0,38,30.00,10.0,South,10.4,-,N/A,,Clear,170,2014-01-13 19:52:00
3:52 PM,48.9,28.0,44,30.00,10.0,South,10.4,20.7,N/A,,Clear,180,2014-01-13 20:52:00
4:52 PM,46.9,28.9,50,30.01,10.0,South,9.2,-,N/A,,Clear,180,2014-01-13 21:52:00
5:52 PM,44.1,30.0,58,30.01,10.0,SSE,8.1,-,N/A,,Clear,160,2014-01-13 22:52:00
6:52 PM,43.0,32.0,65,30.01,10.0,SSE,6.9,-,N/A,,Clear,150,2014-01-13 23:52:00
7:52 PM,42.1,33.1,70,29.97,10.0,ESE,4.6,-,N/A,,Clear,120,2014-01-14 00:52:00
8:52 PM,39.9,34.0,79,29.96,10.0,Calm,Calm,-,N/A,,Partly Cloudy,0,2014-01-14 01:52:00
9:52 PM,43.0,35.1,74,29.93,10.0,SE,3.5,-,N/A,,Clear,130,2014-01-14 02:52:00
10:52 PM,37.9,33.1,83,29.91,10.0,Calm,Calm,-,N/A,,Clear,0,2014-01-14 03:52:00
11:52 PM,46.9,36.0,66,29.89,10.0,Variable,4.6,-,N/A,,Clear,0,2014-01-14 04:52:00